Terug naar catalogus

STARLINK-33817

ActiefCommunicatieVLEO
NORAD 63583·PAYLOAD·🇺🇸 United States

Gelanceerd Apr 14, 2025 vanaf Cape Canaveral Space Force Station

Loading…

Volgende Passages (komende 24 uur)

TLE

VersSource: CelesTrak SupGP

Epoch: Sep 14, 2026, 20:44 UTC

1 63583C 25076Q   26257.86437500 -.00015607  00000+0 -56529-3 0  2577
2 63583  43.0022 332.9930 0001360 273.9511 177.2929 15.27586516    19

Volg STARLINK-33817 in realtime met AllMySat

Download on the App Store